Great Bend, KS

5:59 AM CDT on June 29, 2017 (GMT -0500)
Great Bend Municipal

Weather History for KGBD - September, 2013

Change the Weather History Date:

Tuesday, September 24, 2013

  Actual Average Record
Temperature  
Mean Temperature 66 °F -  
Max Temperature 78 °F 77 °F 96 °F (1984)
Min Temperature 53 °F 51 °F 37 °F (1989)
Growing Degree Days 16 (Base 50)    
Moisture  
Dew Point 49 °F    
Average Humidity 57    
Maximum Humidity 77    
Minimum Humidity 36    
Precipitation  
Precipitation 0.00 in - - ()
Sea Level Pressure  
Sea Level Pressure 29.92 in    
Wind  
Wind Speed 14 mph (NW)    
Max Wind Speed 25 mph    
Max Gust Speed 32 mph    
Visibility 10 miles    
Events      
Averages and records for this station are not official NWS values.
T = Trace of Precipitation, MM = Missing Value Source: NWS Daily Summary

Daily Weather History Graph

Daily Weather History Graph

Search for Another Location

Airport or City:

Trip Planner

Search our weather history database for the weather conditions in past years. The results will help you decide how hot, cold, wet, or windy it might be!

Date:

Astronomy

Sep. 24, 2013 Rise Set
Actual Time 7:25 AM CDT 7:28 PM CDT
Civil Twilight 6:58 AM CDT 7:55 PM CDT
Nautical Twilight 6:27 AM CDT 8:25 PM CDT
Astronomical Twilight 5:56 AM CDT 8:57 PM CDT
Moon 10:51 PM CDT (9/24) 12:36 PM CDT (9/24)
Length of Visible Light 12h 56m
Length of Day
12h 03m
Waning Gibbous, 73% of the Moon is Illuminated
Sep 24
Waning Gibbous
Sep 26
Last Quarter
Oct 4
New
Oct 11
First Quarter
Oct 18
Full

Hourly Weather History & Observations

Time (CDT) Temp. Dew Point Humidity Pressure Visibility Wind Dir Wind Speed Gust Speed Precip Events Conditions
12:15 AM 62.6 °F 48.2 °F 59% 29.83 in 10.0 mi West 12.7 mph 23.0 mph N/A   Clear
12:35 AM 62.6 °F 48.2 °F 59% 29.84 in 10.0 mi WNW 12.7 mph 21.9 mph N/A   Clear
12:55 AM 60.8 °F 48.2 °F 63% 29.84 in 10.0 mi West 11.5 mph - N/A   Clear
1:15 AM 60.8 °F 48.2 °F 63% 29.84 in 10.0 mi West 13.8 mph - N/A   Clear
1:35 AM 60.8 °F 48.2 °F 63% 29.84 in 10.0 mi WNW 13.8 mph 19.6 mph N/A   Clear
1:55 AM 60.8 °F 48.2 °F 63% 29.84 in 10.0 mi West 16.1 mph 20.7 mph N/A   Clear
2:15 AM 59.0 °F 48.2 °F 67% 29.85 in 10.0 mi West 16.1 mph - N/A   Clear
2:35 AM 59.0 °F 48.2 °F 67% 29.85 in 10.0 mi West 17.3 mph 21.9 mph N/A   Clear
2:55 AM 59.0 °F 46.4 °F 63% 29.86 in 10.0 mi West 16.1 mph 20.7 mph N/A   Clear
3:15 AM 59.0 °F 46.4 °F 63% 29.86 in 10.0 mi West 16.1 mph 23.0 mph N/A   Clear
3:35 AM 57.2 °F 46.4 °F 67% 29.86 in 10.0 mi West 17.3 mph 24.2 mph N/A   Clear
3:55 AM 57.2 °F 46.4 °F 67% 29.86 in 10.0 mi West 15.0 mph 20.7 mph N/A   Clear
4:15 AM 57.2 °F 46.4 °F 67% 29.87 in 10.0 mi WNW 12.7 mph - N/A   Clear
4:35 AM 57.2 °F 46.4 °F 67% 29.87 in 10.0 mi WNW 15.0 mph - N/A   Clear
4:55 AM 57.2 °F 46.4 °F 67% 29.87 in 10.0 mi WNW 16.1 mph 24.2 mph N/A   Clear
5:15 AM 57.2 °F 46.4 °F 67% 29.88 in 10.0 mi WNW 16.1 mph 24.2 mph N/A   Clear
5:35 AM 57.2 °F 46.4 °F 67% 29.89 in 10.0 mi WNW 17.3 mph 25.3 mph N/A   Clear
5:55 AM 57.2 °F 46.4 °F 67% 29.89 in 10.0 mi NW 15.0 mph 25.3 mph N/A   Clear
6:15 AM 57.2 °F 46.4 °F 67% 29.90 in 10.0 mi WNW 18.4 mph 24.2 mph N/A   Clear
6:35 AM 57.2 °F 46.4 °F 67% 29.91 in 10.0 mi NW 20.7 mph 26.5 mph N/A   Clear
6:55 AM 57.2 °F 46.4 °F 67% 29.92 in 10.0 mi NW 17.3 mph 25.3 mph N/A   Clear
7:15 AM 57.2 °F 46.4 °F 67% 29.92 in 10.0 mi WNW 18.4 mph 25.3 mph N/A   Clear
7:35 AM 57.2 °F 46.4 °F 67% 29.93 in 10.0 mi WNW 17.3 mph 26.5 mph N/A   Clear
7:55 AM 57.2 °F 46.4 °F 67% 29.94 in 10.0 mi NW 16.1 mph 24.2 mph N/A   Clear
8:15 AM 57.2 °F 46.4 °F 67% 29.94 in 10.0 mi NW 15.0 mph 21.9 mph N/A   Clear
8:35 AM 59.0 °F 46.4 °F 63% 29.95 in 10.0 mi NW 17.3 mph 23.0 mph N/A   Clear
8:55 AM 59.0 °F 46.4 °F 63% 29.95 in 10.0 mi NW 18.4 mph 26.5 mph N/A   Mostly Cloudy
9:15 AM 60.8 °F 48.2 °F 63% 29.96 in 10.0 mi NNW 18.4 mph 25.3 mph N/A   Partly Cloudy
9:35 AM 62.6 °F 46.4 °F 55% 29.97 in 10.0 mi NW 25.3 mph 32.2 mph N/A   Clear
9:55 AM 62.6 °F 48.2 °F 59% 29.97 in 10.0 mi NNW 21.9 mph 25.3 mph N/A   Clear
10:15 AM 64.4 °F 48.2 °F 56% 29.98 in 10.0 mi NNW 19.6 mph 27.6 mph N/A   Clear
10:35 AM 66.2 °F 48.2 °F 52% 29.98 in 10.0 mi NW 21.9 mph 28.8 mph N/A   Clear
10:55 AM 66.2 °F 50.0 °F 56% 29.99 in 10.0 mi NW 19.6 mph 26.5 mph N/A   Clear
11:15 AM 68.0 °F 50.0 °F 52% 29.99 in 10.0 mi NW 19.6 mph 29.9 mph N/A   Clear
11:35 AM 69.8 °F 50.0 °F 49% 29.98 in 10.0 mi NW 20.7 mph 26.5 mph N/A   Clear
11:55 AM 69.8 °F 51.8 °F 53% 29.98 in 10.0 mi NW 18.4 mph 27.6 mph N/A   Clear
12:15 PM 71.6 °F 51.8 °F 50% 29.98 in 10.0 mi NW 18.4 mph 26.5 mph N/A   Clear
12:35 PM 71.6 °F 51.8 °F 50% 29.98 in 10.0 mi NNW 18.4 mph 25.3 mph N/A   Clear
12:55 PM 73.4 °F 51.8 °F 47% 29.97 in 10.0 mi NW 20.7 mph 27.6 mph N/A   Clear
1:15 PM 73.4 °F 51.8 °F 47% 29.97 in 10.0 mi NW 19.6 mph 25.3 mph N/A   Clear
1:35 PM 75.2 °F 51.8 °F 44% 29.96 in 10.0 mi NNW 15.0 mph 26.5 mph N/A   Clear
1:55 PM 75.2 °F 51.8 °F 44% 29.96 in 10.0 mi NNW 17.3 mph 26.5 mph N/A   Clear
2:15 PM 77.0 °F 51.8 °F 41% 29.95 in 10.0 mi NNW 17.3 mph 24.2 mph N/A   Clear
2:35 PM 78.8 °F 50.0 °F 36% 29.95 in 10.0 mi NNW 17.3 mph 25.3 mph N/A   Clear
2:55 PM 77.0 °F 51.8 °F 41% 29.94 in 10.0 mi NW 17.3 mph 23.0 mph N/A   Clear
3:15 PM 78.8 °F 51.8 °F 39% 29.94 in 10.0 mi NNW 13.8 mph 25.3 mph N/A   Clear
3:35 PM 78.8 °F 51.8 °F 39% 29.94 in 10.0 mi NNW 18.4 mph 23.0 mph N/A   Clear
3:55 PM 78.8 °F 51.8 °F 39% 29.94 in 10.0 mi NNW 15.0 mph 24.2 mph N/A   Clear
4:15 PM 78.8 °F 51.8 °F 39% 29.93 in 10.0 mi NNW 13.8 mph 21.9 mph N/A   Clear
4:35 PM 78.8 °F 50.0 °F 36% 29.93 in 10.0 mi NNW 13.8 mph 19.6 mph N/A   Clear
4:55 PM 78.8 °F 51.8 °F 39% 29.93 in 10.0 mi NNW 13.8 mph 19.6 mph N/A   Clear
5:15 PM 78.8 °F 51.8 °F 39% 29.93 in 10.0 mi North 11.5 mph 20.7 mph N/A   Clear
5:35 PM 78.8 °F 51.8 °F 39% 29.93 in 10.0 mi North 12.7 mph - N/A   Clear
5:55 PM 77.0 °F 50.0 °F 39% 29.93 in 10.0 mi North 10.4 mph 17.3 mph N/A   Clear
6:15 PM 77.0 °F 50.0 °F 39% 29.93 in 10.0 mi North 10.4 mph - N/A   Clear
6:35 PM 75.2 °F 51.8 °F 44% 29.93 in 10.0 mi North 9.2 mph - N/A   Clear
6:55 PM 73.4 °F 51.8 °F 47% 29.93 in 10.0 mi North 8.1 mph - N/A   Clear
7:15 PM 71.6 °F 51.8 °F 50% 29.93 in 10.0 mi NNE 8.1 mph - N/A   Clear
7:35 PM 69.8 °F 51.8 °F 53% 29.93 in 10.0 mi NE 8.1 mph - N/A   Clear
7:55 PM 69.8 °F 51.8 °F 53% 29.93 in 10.0 mi NE 6.9 mph - N/A   Clear
8:15 PM 66.2 °F 50.0 °F 56% 29.93 in 10.0 mi NE 4.6 mph - N/A   Clear
8:35 PM 62.6 °F 50.0 °F 63% 29.94 in 10.0 mi Calm Calm - N/A   Clear
8:55 PM 64.4 °F 50.0 °F 59% 29.94 in 10.0 mi NE 4.6 mph - N/A   Clear
9:15 PM 62.6 °F 50.0 °F 63% 29.94 in 10.0 mi NE 5.8 mph - N/A   Clear
9:35 PM 60.8 °F 48.2 °F 63% 29.95 in 10.0 mi Calm Calm - N/A   Clear
9:55 PM 57.2 °F 48.2 °F 72% 29.95 in 10.0 mi Calm Calm - N/A   Clear
10:15 PM 55.4 °F 46.4 °F 72% 29.95 in 10.0 mi Calm Calm - N/A   Clear
10:35 PM 55.4 °F 46.4 °F 72% 29.95 in 10.0 mi Calm Calm - N/A   Clear
10:55 PM 55.4 °F 46.4 °F 72% 29.94 in 10.0 mi Calm Calm - N/A   Clear
11:15 PM 53.6 °F 46.4 °F 77% 29.94 in 10.0 mi Calm Calm - N/A   Clear
11:35 PM 53.6 °F 46.4 °F 77% 29.94 in 10.0 mi Calm Calm - N/A   Clear
11:55 PM 53.6 °F 46.4 °F 77% 29.94 in 10.0 mi Calm Calm - N/A   Clear